TimeCDT,TemperatureF,Dew PointF,Humidity,Sea Level PressureIn,VisibilityMPH,Wind Direction,Wind SpeedMPH,Gust SpeedMPH,PrecipitationIn,Events,Conditions,WindDirDegrees,DateUTC
12:15 AM,30.2,23.2,75,30.01,10.0,ESE,4.6,-,N/A,,Clear,120,2014-03-21 05:15:00
12:35 AM,29.1,25.0,85,30.01,10.0,ESE,3.5,-,N/A,,Clear,120,2014-03-21 05:35:00
12:55 AM,29.8,23.7,78,30.01,10.0,ESE,3.5,-,N/A,,Clear,120,2014-03-21 05:55:00
1:15 AM,29.5,21.7,73,30.00,10.0,ESE,4.6,-,N/A,,Clear,110,2014-03-21 06:15:00
1:35 AM,28.9,22.1,76,30.00,10.0,ESE,6.9,-,N/A,,Clear,110,2014-03-21 06:35:00
1:55 AM,28.0,23.2,82,30.00,10.0,ESE,5.8,-,N/A,,Clear,120,2014-03-21 06:55:00
2:15 AM,27.5,23.2,84,30.00,10.0,ESE,5.8,-,N/A,,Clear,120,2014-03-21 07:15:00
2:35 AM,27.7,24.4,88,30.00,10.0,ESE,3.5,-,N/A,,Clear,120,2014-03-21 07:35:00
2:55 AM,27.5,23.0,83,29.98,10.0,ESE,8.1,-,N/A,,Clear,110,2014-03-21 07:55:00
3:15 AM,27.1,23.0,84,29.98,10.0,ESE,5.8,-,N/A,,Clear,120,2014-03-21 08:15:00
3:35 AM,27.1,22.6,83,29.98,10.0,ESE,4.6,-,N/A,,Clear,120,2014-03-21 08:35:00
3:55 AM,26.4,22.1,84,29.97,10.0,ESE,5.8,-,N/A,,Clear,110,2014-03-21 08:55:00
4:15 AM,27.1,23.0,84,29.97,10.0,ESE,8.1,-,N/A,,Clear,110,2014-03-21 09:15:00
4:35 AM,27.3,23.0,84,29.97,10.0,ESE,8.1,-,N/A,,Clear,110,2014-03-21 09:35:00
4:55 AM,27.5,22.8,83,29.97,10.0,ESE,6.9,-,N/A,,Clear,110,2014-03-21 09:55:00
5:15 AM,27.1,21.9,81,29.97,10.0,ESE,6.9,-,N/A,,Clear,110,2014-03-21 10:15:00
5:35 AM,27.3,21.9,80,29.96,10.0,East,5.8,-,N/A,,Clear,100,2014-03-21 10:35:00
5:55 AM,26.6,21.9,82,29.96,10.0,East,6.9,-,N/A,,Clear,100,2014-03-21 10:55:00
6:15 AM,27.3,22.3,81,29.95,10.0,ESE,6.9,-,N/A,,Clear,110,2014-03-21 11:15:00
6:35 AM,27.0,22.6,84,29.96,10.0,ESE,8.1,-,N/A,,Clear,120,2014-03-21 11:35:00
6:55 AM,27.3,23.0,84,29.96,7.0,ESE,6.9,-,N/A,,Clear,110,2014-03-21 11:55:00
7:15 AM,28.0,23.0,81,29.95,7.0,ESE,9.2,-,N/A,,Clear,110,2014-03-21 12:15:00
7:35 AM,28.4,23.0,80,29.95,7.0,ESE,8.1,-,N/A,,Clear,110,2014-03-21 12:35:00
7:55 AM,29.7,24.1,80,29.95,7.0,ESE,6.9,-,N/A,,Clear,110,2014-03-21 12:55:00
8:15 AM,30.9,24.4,77,29.95,7.0,East,6.9,-,N/A,,Clear,100,2014-03-21 13:15:00
8:35 AM,31.5,25.3,78,29.95,7.0,ESE,6.9,-,N/A,,Clear,110,2014-03-21 13:35:00
8:55 AM,32.0,25.9,78,29.95,7.0,SE,8.1,-,N/A,,Clear,140,2014-03-21 13:55:00
9:15 AM,34.0,27.0,75,29.97,7.0,SE,6.9,-,N/A,,Clear,140,2014-03-21 14:15:00
9:35 AM,35.6,26.8,70,29.95,10.0,SE,11.5,-,N/A,,Clear,140,2014-03-21 14:35:00
9:55 AM,36.5,26.2,66,29.94,10.0,SE,13.8,-,N/A,,Clear,140,2014-03-21 14:55:00
10:15 AM,37.6,27.0,66,29.93,10.0,SE,11.5,18.4,N/A,,Clear,140,2014-03-21 15:15:00
10:35 AM,38.8,27.5,64,29.92,10.0,SE,16.1,-,N/A,,Clear,140,2014-03-21 15:35:00
10:55 AM,39.2,25.2,57,29.91,10.0,SE,15.0,-,N/A,,Clear,140,2014-03-21 15:55:00
11:15 AM,39.4,24.6,56,29.90,10.0,ESE,11.5,19.6,N/A,,Clear,120,2014-03-21 16:15:00
11:35 AM,40.5,26.2,57,29.89,10.0,SE,16.1,19.6,N/A,,Clear,130,2014-03-21 16:35:00
11:55 AM,41.0,26.6,57,29.88,10.0,SE,19.6,24.2,N/A,,Clear,130,2014-03-21 16:55:00
12:15 PM,41.9,27.3,56,29.85,10.0,ESE,19.6,-,N/A,,Clear,120,2014-03-21 17:15:00
12:35 PM,42.8,26.2,52,29.84,10.0,SE,21.9,28.8,N/A,,Clear,140,2014-03-21 17:35:00
12:55 PM,43.3,26.4,51,29.82,10.0,SSE,19.6,26.5,N/A,,Clear,150,2014-03-21 17:55:00
1:15 PM,43.9,26.6,51,29.80,10.0,ESE,18.4,-,N/A,,Clear,120,2014-03-21 18:15:00
1:35 PM,44.1,26.6,50,29.80,10.0,SE,15.0,24.2,N/A,,Clear,130,2014-03-21 18:35:00
1:55 PM,45.1,26.2,48,29.79,10.0,SE,16.1,-,N/A,,Clear,130,2014-03-21 18:55:00
2:15 PM,45.3,25.9,47,29.77,10.0,SE,15.0,19.6,N/A,,Clear,130,2014-03-21 19:15:00
2:35 PM,45.0,26.4,48,29.75,10.0,ESE,16.1,21.9,N/A,,Clear,110,2014-03-21 19:35:00
2:55 PM,45.0,27.0,49,29.75,10.0,ESE,15.0,-,N/A,,Clear,120,2014-03-21 19:55:00
3:15 PM,44.8,28.6,53,29.73,10.0,ESE,16.1,-,N/A,,Clear,120,2014-03-21 20:15:00
3:35 PM,44.6,30.4,57,29.72,10.0,ESE,15.0,-,N/A,,Clear,120,2014-03-21 20:35:00
3:55 PM,43.7,30.7,60,29.73,10.0,SE,12.7,-,N/A,,Clear,140,2014-03-21 20:55:00
4:15 PM,43.5,30.6,60,29.75,10.0,SSE,11.5,-,N/A,,Scattered Clouds,150,2014-03-21 21:15:00
4:35 PM,42.6,30.7,63,29.75,10.0,SE,15.0,-,N/A,,Mostly Cloudy,140,2014-03-21 21:35:00
4:55 PM,42.3,31.3,65,29.74,10.0,SE,12.7,-,N/A,,Mostly Cloudy,130,2014-03-21 21:55:00
5:15 PM,41.9,31.1,66,29.72,10.0,ESE,10.4,-,N/A,,Mostly Cloudy,120,2014-03-21 22:15:00
5:35 PM,41.0,30.7,67,29.73,10.0,East,6.9,-,N/A,,Overcast,100,2014-03-21 22:35:00
5:55 PM,40.5,31.3,70,29.72,10.0,ESE,10.4,-,N/A,,Overcast,120,2014-03-21 22:55:00
6:15 PM,39.7,31.1,71,29.71,10.0,ESE,8.1,-,N/A,,Mostly Cloudy,110,2014-03-21 23:15:00
6:35 PM,39.4,31.1,72,29.72,10.0,East,4.6,-,N/A,,Scattered Clouds,100,2014-03-21 23:35:00
6:55 PM,38.7,31.1,74,29.73,10.0,SE,4.6,-,N/A,,Scattered Clouds,140,2014-03-21 23:55:00
7:15 PM,37.8,30.9,76,29.73,10.0,SE,3.5,-,N/A,,Scattered Clouds,140,2014-03-22 00:15:00
7:35 PM,37.4,30.9,77,29.73,10.0,South,3.5,-,N/A,,Clear,170,2014-03-22 00:35:00
7:55 PM,35.6,31.1,84,29.73,7.0,SSW,3.5,-,N/A,,Clear,200,2014-03-22 00:55:00
8:15 PM,34.9,30.6,84,29.74,7.0,SW,5.8,-,N/A,,Scattered Clouds,230,2014-03-22 01:15:00
8:35 PM,34.5,31.1,87,29.75,7.0,WSW,5.8,-,N/A,,Scattered Clouds,250,2014-03-22 01:35:00
8:55 PM,35.1,31.1,85,29.75,7.0,WSW,4.6,-,N/A,,Clear,250,2014-03-22 01:55:00
9:15 PM,35.8,32.0,86,29.75,7.0,West,3.5,-,N/A,,Mostly Cloudy,270,2014-03-22 02:15:00
9:35 PM,36.5,32.0,84,29.76,7.0,West,4.6,-,N/A,,Overcast,260,2014-03-22 02:35:00
9:55 PM,39.0,31.1,73,29.77,10.0,West,12.7,17.3,N/A,,Overcast,280,2014-03-22 02:55:00
10:15 PM,39.6,31.1,72,29.79,10.0,West,10.4,20.7,N/A,,Overcast,270,2014-03-22 03:15:00
10:35 PM,38.7,31.8,76,29.80,10.0,WNW,9.2,24.2,N/A,,Overcast,300,2014-03-22 03:35:00
10:55 PM,37.6,31.8,80,29.82,10.0,WNW,12.7,19.6,N/A,,Overcast,290,2014-03-22 03:55:00
11:15 PM,37.4,29.7,74,29.82,10.0,WNW,12.7,20.7,N/A,,Overcast,290,2014-03-22 04:15:00
11:35 PM,37.2,28.2,70,29.83,10.0,WNW,10.4,23.0,N/A,,Overcast,300,2014-03-22 04:35:00
11:55 PM,36.9,28.4,71,29.84,10.0,West,9.2,20.7,N/A,,Overcast,280,2014-03-22 04:55:00